N0JVW-13 Weather Reports


time (UTC)temp
F
wind
direction
speed
knots
gust
knots
rain 1hr
in
rain 24hr
in
rain mn
in
humidity
%
barometer
mb
20260502164054 57 283 0.0 5.2 0.00 0.00 0.00 44 1021.5
20260502163529 57 13 0.0 5.2 0.00 0.00 0.00 45 1021.5
20260502163004 57 4 0.9 3.5 0.00 0.00 0.00 48 1021.5
20260502162546 57 349 0.0 3.5 0.00 0.00 0.00 47 1021.5
20260502162020 56 349 0.0 3.5 0.00 0.00 0.00 46 1021.5
20260502161603 56 4 0.9 3.5 0.00 0.00 0.00 46 1021.6
20260502161036 56 330 0.0 4.3 0.00 0.00 0.00 48 1021.4
20260502160513 56 349 0.9 4.3 0.00 0.00 0.00 48 1021.5
20260502152054 55 303 0.0 3.5 0.00 0.00 0.00 54 1021.6
20260502151529 54 354 0.0 2.6 0.00 0.00 0.00 55 1021.6
20260502151005 54 337 0.0 4.3 0.00 0.00 0.00 56 1021.6
20260502150546 54 38 1.7 4.3 0.00 0.00 0.00 55 1021.6
20260502140103 49 350 0.0 5.2 0.00 0.00 0.00 69 1021.5
20260502130555 45 22 0.0 3.5 0.00 0.00 0.00 75 1021.1
20260502123540 43 200 0.0 0.0 0.00 0.00 0.00 77 1020.9
20260502123017 42 200 0.0 0.0 0.00 0.00 0.00 77 1020.8
20260502122559 42 200 0.0 0.0 0.00 0.00 0.00 78 1020.8
20260502122034 42 200 0.0 0.0 0.00 0.00 0.00 78 1020.7
20260502121513 41 201 0.0 0.0 0.00 0.00 0.00 79 1020.7
20260502121051 41 200 0.0 0.0 0.00 0.00 0.00 79 1020.6
20260502120528 41 200 0.0 0.0 0.00 0.00 0.00 79 1020.5
20260502115547 41 201 0.0 0.0 0.00 0.00 0.00 79 1020.3
20260502115021 41 200 0.0 0.0 0.00 0.00 0.00 78 1020.3
20260502114603 41 200 0.0 0.0 0.00 0.00 0.00 78 1020.2
20260502114038 41 200 0.0 0.0 0.00 0.00 0.00 79 1020.1
20260502113514 41 201 0.0 0.0 0.00 0.00 0.00 78 1020.1
20260502113106 41 200 0.0 0.0 0.00 0.00 0.00 78 1020.1
20260502112529 41 200 0.0 0.0 0.00 0.00 0.00 78 1020.0
20260502112006 41 200 0.0 0.0 0.00 0.00 0.00 78 1019.9
20260502111547 41 200 0.0 0.0 0.00 0.00 0.00 77 1020.0
20260502111022 41 200 0.0 0.0 0.00 0.00 0.00 77 1019.9
20260502110604 41 200 0.0 0.0 0.00 0.00 0.00 77 1019.9
20260502110043 41 200 0.0 0.0 0.00 0.00 0.00 77 1019.9
20260502105516 41 200 0.0 0.0 0.00 0.00 0.00 77 1019.9
20260502105058 41 200 0.0 0.0 0.00 0.00 0.00 77 1019.8
20260502104536 41 200 0.0 0.0 0.00 0.00 0.00 77 1019.8
20260502104009 41 200 0.0 0.0 0.00 0.00 0.00 77 1019.7
20260502103549 41 200 0.0 0.0 0.00 0.00 0.00 77 1019.7
20260502103025 42 200 0.0 0.0 0.00 0.00 0.00 76 1019.7
20260502102501 42 200 0.0 0.0 0.00 0.00 0.00 76 1019.6
20260502102042 42 200 0.0 0.0 0.00 0.00 0.00 76 1019.6
20260502101518 42 200 0.0 0.0 0.00 0.00 0.00 76 1019.5
20260502101058 42 200 0.0 0.0 0.00 0.00 0.00 76 1019.5
20260502100533 42 200 0.0 0.0 0.00 0.00 0.00 75 1019.4
20260502091028 44 200 0.0 0.0 0.00 0.00 0.00 71 1019.2
20260502090502 44 200 0.0 0.0 0.00 0.00 0.00 70 1019.2
20260502071030 47 201 0.0 0.0 0.00 0.00 0.00 60 1018.8
20260502070503 47 200 0.0 0.0 0.00 0.00 0.00 60 1018.9
20260502065522 48 200 0.0 0.0 0.00 0.00 0.00 59 1018.9
20260502065103 48 200 0.0 0.0 0.00 0.00 0.00 58 1018.9
20260502064545 48 200 0.0 0.0 0.00 0.00 0.00 58 1018.9
20260502064014 48 200 0.0 0.0 0.00 0.00 0.00 58 1018.9
20260502063555 48 200 0.0 0.0 0.00 0.00 0.00 57 1018.9
20260502063034 48 200 0.0 0.0 0.00 0.00 0.00 57 1018.9
20260502062508 49 200 0.0 0.0 0.00 0.00 0.00 57 1018.9
20260502062048 49 200 0.0 0.0 0.00 0.00 0.00 57 1018.9
20260502061524 49 200 0.0 0.0 0.00 0.00 0.00 57 1018.9
20260502061107 49 200 0.0 0.0 0.00 0.00 0.00 56 1018.9
20260502060538 49 200 0.0 0.0 0.00 0.00 0.00 57 1018.9
20260502060027 49 200 0.0 0.0 0.00 0.00 0.00 56 1018.9
20260502055556 49 200 0.0 0.0 0.00 0.00 0.00 56 1019.0
20260502055034 49 200 0.0 0.0 0.00 0.00 0.00 55 1019.0
20260502054509 50 200 0.0 0.0 0.00 0.00 0.00 55 1018.9
20260502054051 50 200 0.0 0.0 0.00 0.00 0.00 54 1018.9
20260502053525 50 200 0.0 0.0 0.00 0.00 0.00 55 1018.9
20260502053002 50 201 0.0 0.0 0.00 0.00 0.00 55 1018.9
20260502052543 50 200 0.0 0.0 0.00 0.00 0.00 56 1018.8
20260502052021 50 200 0.0 0.9 0.00 0.00 0.00 56 1018.9
20260502051603 50 200 0.0 0.9 0.00 0.00 0.00 55 1018.9
20260502051037 50 22 0.0 0.9 0.00 0.00 0.00 54 1018.8
20260502050510 51 22 0.0 0.9 0.00 0.00 0.00 55 1018.7
20260502050051 51 22 0.0 0.9 0.00 0.00 0.00 56 1018.7
20260502045528 51 8 0.0 0.9 0.00 0.00 0.00 56 1018.7
20260502045007 50 8 0.0 0.9 0.00 0.00 0.00 57 1018.8
20260502044546 50 335 0.0 0.9 0.00 0.00 0.00 57 1018.8
20260502044022 50 335 0.0 0.9 0.00 0.00 0.00 58 1018.8
20260502043604 50 335 0.0 0.0 0.00 0.00 0.00 60 1018.8
20260502043050 50 335 0.0 0.0 0.00 0.00 0.00 60 1018.7
20260502042514 49 335 0.0 0.0 0.00 0.00 0.00 61 1018.7
20260502042055 49 335 0.0 0.0 0.00 0.00 0.00 65 1018.7
20260502041553 49 335 0.0 0.0 0.00 0.00 0.00 66 1018.6
20260502041005 49 335 0.0 0.0 0.00 0.00 0.00 65 1018.6
20260502040550 50 335 0.0 0.0 0.00 0.00 0.00 65 1018.6
20260502040042 50 335 0.0 0.0 0.00 0.00 0.00 65 1018.6
20260502035603 50 335 0.0 0.0 0.00 0.00 0.00 64 1018.6
20260502035040 50 335 0.0 0.0 0.00 0.00 0.00 63 1018.5
20260502034514 50 335 0.0 0.0 0.00 0.00 0.00 63 1018.5
20260502034055 51 335 0.0 0.0 0.00 0.00 0.00 62 1018.5
20260502033530 51 335 0.0 0.0 0.00 0.00 0.00 61 1018.5
20260502033006 51 335 0.0 0.0 0.00 0.00 0.00 59 1018.5
20260502032545 51 335 0.0 0.0 0.00 0.00 0.00 58 1018.4
20260502032022 52 335 0.0 0.0 0.00 0.00 0.00 58 1018.4
20260502031603 52 335 0.0 0.0 0.00 0.00 0.00 58 1018.4
20260502031038 53 335 0.0 0.0 0.00 0.00 0.00 56 1018.2
20260502030515 53 335 0.0 0.0 0.00 0.00 0.00 56 1018.2
20260502030117 53 335 0.0 0.0 0.00 0.00 0.00 54 1018.2
20260502025533 53 335 0.0 0.0 0.00 0.00 0.00 52 1018.1
20260502025014 54 335 0.0 0.0 0.00 0.00 0.00 51 1018.1
20260502024603 54 335 0.0 0.0 0.00 0.00 0.00 51 1018.0
20260502024026 54 335 0.0 0.0 0.00 0.00 0.00 51 1017.9
20260502023502 55 335 0.0 0.0 0.00 0.00 0.00 50 1017.8
20260502023100 55 335 0.0 0.0 0.00 0.00 0.00 49 1017.8
20260502022521 55 335 0.0 0.0 0.00 0.00 0.00 50 1017.7
20260502022059 56 335 0.0 0.0 0.00 0.00 0.00 50 1017.6
20260502021535 56 335 0.0 0.9 0.00 0.00 0.00 48 1017.5
20260502021011 56 335 0.0 0.9 0.00 0.00 0.00 47 1017.4
20260502020551 56 335 0.0 0.9 0.00 0.00 0.00 47 1017.4
20260502020028 57 335 0.0 0.0 0.00 0.00 0.00 48 1017.2
20260502015504 57 335 0.0 0.9 0.00 0.00 0.00 46 1017.1
20260502015045 57 335 0.0 1.7 0.00 0.00 0.00 45 1017.1
20260502014524 57 20 0.0 1.7 0.00 0.00 0.00 45 1017.0
20260502014101 57 360 0.0 3.5 0.00 0.00 0.00 45 1017.0
20260502013538 58 360 0.0 3.5 0.00 0.00 0.00 44 1016.9
20260502013015 58 13 0.0 1.7 0.00 0.00 0.00 44 1016.8
20260502012555 58 9 0.0 1.7 0.00 0.00 0.00 43 1016.7
20260502012029 58 327 0.0 0.9 0.00 0.00 0.00 42 1016.6
20260502011504 58 327 0.0 0.9 0.00 0.00 0.00 43 1016.5
20260502011045 59 327 0.0 0.9 0.00 0.00 0.00 42 1016.5
20260502010520 59 327 0.0 3.5 0.00 0.00 0.00 42 1016.4
20260502005537 60 30 0.0 1.7 0.00 0.00 0.00 39 1016.2
20260502005012 60 309 0.0 1.7 0.00 0.00 0.00 39 1016.2
20260502004554 60 320 0.0 1.7 0.00 0.00 0.00 38 1016.1
20260502004029 60 23 0.0 1.7 0.00 0.00 0.00 38 1016.0
20260502003505 61 316 0.0 2.6 0.00 0.00 0.00 38 1015.9
20260502003046 61 316 0.0 2.6 0.00 0.00 0.00 37 1015.8
20260502002527 61 9 0.0 4.3 0.00 0.00 0.00 37 1015.8
20260502002103 61 9 0.0 4.3 0.00 0.00 0.00 37 1015.8
20260502001542 61 328 0.0 2.6 0.00 0.00 0.00 37 1015.7
20260502001013 61 27 0.0 3.5 0.00 0.00 0.00 36 1015.7
20260502000554 62 304 0.9 3.5 0.00 0.00 0.00 37 1015.6
20260502000048 62 323 0.0 1.7 0.00 0.00 0.00 36 1015.6
20260501235506 62 352 0.0 3.5 0.00 0.00 0.00 37 1015.5
20260501235047 62 314 0.0 3.5 0.00 0.00 0.00 36 1015.6
20260501234524 62 306 0.9 4.3 0.00 0.00 0.00 36 1015.5
20260501234104 62 49 0.0 4.3 0.00 0.00 0.00 36 1015.5
20260501233540 62 11 0.9 5.2 0.00 0.00 0.00 36 1015.5
20260501233017 62 18 1.7 7.0 0.00 0.00 0.00 35 1015.5
20260501232559 62 343 0.9 7.0 0.00 0.00 0.00 35 1015.4
20260501232036 62 321 1.7 7.8 0.00 0.00 0.00 34 1015.5
20260501231510 62 300 0.9 4.3 0.00 0.00 0.00 34 1015.5
20260501231051 62 295 0.0 4.3 0.00 0.00 0.00 34 1015.4
20260501230525 63 325 0.0 2.6 0.00 0.00 0.00 33 1015.4
20260501230002 63 323 0.0 2.6 0.00 0.00 0.00 33 1015.5
20260501225543 63 358 0.0 7.0 0.00 0.00 0.00 35 1015.4
20260501225018 63 279 0.9 7.0 0.00 0.00 0.00 34 1015.5
20260501224607 63 355 2.6 7.0 0.00 0.00 0.00 33 1015.5
20260501224034 64 344 1.7 7.0 0.00 0.00 0.00 34 1015.6
20260501223510 64 354 0.0 3.5 0.00 0.00 0.00 33 1015.6
20260501223055 64 314 0.9 3.5 0.00 0.00 0.00 32 1015.5
20260501222528 64 330 0.0 3.5 0.00 0.00 0.00 35 1015.5
20260501222002 64 322 0.9 4.3 0.00 0.00 0.00 37 1015.6
20260501221543 63 283 0.9 4.3 0.00 0.00 0.00 36 1015.6
20260501221022 64 277 0.0 2.6 0.00 0.00 0.00 37 1015.6
20260501220601 64 257 0.0 3.5 0.00 0.00 0.00 38 1015.7
20260501220040 64 304 0.9 3.5 0.00 0.00 0.00 38 1015.7
20260501215516 64 259 0.0 2.6 0.00 0.00 0.00 41 1015.6
20260501215055 63 297 0.0 3.5 0.00 0.00 0.00 39 1015.8
20260501214530 63 315 0.9 3.5 0.00 0.00 0.00 40 1015.9
20260501214005 63 248 0.0 1.7 0.00 0.00 0.00 38 1015.9
20260501213546 62 309 0.9 3.5 0.00 0.00 0.00 37 1016.1
20260501213026 63 295 0.9 3.5 0.00 0.00 0.00 36 1016.1
20260501212603 63 288 1.7 3.5 0.00 0.00 0.00 36 1016.2
20260501212039 63 295 0.9 2.6 0.00 0.00 0.00 37 1016.2
20260501211515 63 296 0.9 2.6 0.00 0.00 0.00 38 1016.3
20260501211055 63 312 0.0 2.6 0.00 0.00 0.00 38 1016.4
20260501210534 63 315 0.0 1.7 0.00 0.00 0.00 40 1016.6
20260501210008 62 254 0.0 2.6 0.00 0.00 0.00 39 1016.6
20260501205550 62 345 0.0 2.6 0.00 0.00 0.00 39 1016.7
20260501205023 62 293 0.0 3.5 0.00 0.00 0.00 38 1016.8
20260501204603 63 323 0.0 3.5 0.00 0.00 0.00 37 1016.8
20260501204043 63 279 0.0 0.9 0.00 0.00 0.00 38 1016.9
20260501203515 63 279 0.0 2.6 0.00 0.00 0.00 38 1017.0
20260501203057 63 280 0.0 2.6 0.00 0.00 0.00 37 1017.0
20260501202532 63 300 0.0 1.7 0.00 0.00 0.00 37 1017.0
20260501202008 63 244 0.0 1.7 0.00 0.00 0.00 38 1017.1
20260501201549 63 355 0.0 1.7 0.00 0.00 0.00 40 1017.1
20260501201027 63 94 0.0 3.5 0.00 0.00 0.00 37 1017.3
20260501200500 63 313 0.9 3.5 0.00 0.00 0.00 37 1017.4
20260501200043 63 283 0.9 2.6 0.00 0.00 0.00 37 1017.4
20260501195518 63 278 0.9 2.6 0.00 0.00 0.00 39 1017.5
20260501195058 62 313 0.0 3.5 0.00 0.00 0.00 40 1017.6
20260501194534 62 313 0.9 3.5 0.00 0.00 0.00 38 1017.6
20260501194011 62 280 0.9 2.6 0.00 0.00 0.00 37 1017.7
20260501193553 63 295 0.0 0.9 0.00 0.00 0.00 37 1017.7
20260501193033 63 36 0.0 1.7 0.00 0.00 0.00 36 1017.8
20260501192503 63 262 0.0 2.6 0.00 0.00 0.00 37 1017.8
20260501192045 62 288 0.0 2.6 0.00 0.00 0.00 37 1017.8
20260501191520 62 262 0.9 3.5 0.00 0.00 0.00 37 1017.8
20260501191105 62 324 0.9 3.5 0.00 0.00 0.00 37 1017.7
20260501190537 62 324 0.9 3.5 0.00 0.00 0.00 37 1017.8
20260501190014 62 332 0.0 4.3 0.00 0.00 0.00 35 1017.7
20260501185554 62 316 0.9 4.3 0.00 0.00 0.00 33 1017.8
20260501185030 62 252 0.9 2.6 0.00 0.00 0.00 34 1017.8
20260501184506 63 288 0.0 2.6 0.00 0.00 0.00 37 1017.9
20260501184047 63 262 0.0 3.5 0.00 0.00 0.00 37 1017.8
20260501183523 62 309 0.0 3.5 0.00 0.00 0.00 37 1017.8
20260501183108 62 295 0.0 2.6 0.00 0.00 0.00 37 1017.8
20260501182539 62 1 0.9 3.5 0.00 0.00 0.00 35 1017.8
20260501182014 62 313 0.0 3.5 0.00 0.00 0.00 38 1017.9
20260501181557 62 270 0.0 2.6 0.00 0.00 0.00 39 1018.0
20260501181031 61 339 0.0 2.6 0.00 0.00 0.00 37 1017.9
20260501180509 61 264 0.0 3.5 0.00 0.00 0.00 37 1018.0
20260501180049 62 20 0.0 3.5 0.00 0.00 0.00 37 1018.0
20260501175524 62 30 0.9 3.5 0.00 0.00 0.00 38 1018.1
20260501175105 62 320 0.0 0.9 0.00 0.00 0.00 39 1018.1
20260501174541 61 328 0.0 3.5 0.00 0.00 0.00 40 1018.2
20260501174016 61 21 0.0 2.6 0.00 0.00 0.00 39 1018.3